SCP
0 0 0 0 0 0 0 0 0 0 0 0 0 0 0 0 0 0 0 0 0 0 0 0 0 0 0 0 0 0 0 0 0 0 0 0 0 0 0 0 0 0 0 0
0 0 0 0 0 0 0 0 0 0 0 0 0 0 0 0 0 0 0 0 0 0 0 0 0 0 0 0 0 0 0 0 0 0 0 0 0 0 0 0 0 0 0 0
0 0 0 0 0 0 0 0 0 0 0 0 0 0 0 0 0 0 0 0 0 0 0 0 0 0 0 0 0 0 0 0 0 0 0 0 0 0 0 0 0 0 0 0
0 0 0 0 0 0 0 0 0 0 0 0 0 0 0 0 0 0 0 0 0 0 0 0 0 0 0 0 0 0 0 0 0 0 0 0 0 0 0 0 0 0 0 0
0 0 0 0 0 0 0 0 0 0 0 0 0 0 0 0 0 0 0 0 0 0 0 0 0 0 0 0 0 0 0 0 0 0 0 0 0 0 0 0 0 0 0 0
0 0 0 0 0 0 0 0 0 0 0 0 0 0 0 0 0 0 0 0 0 0 0 0 0 0 0 0 0 0 0 0 0 0 0 0 0 0 0 0 0 0 0 0
0 0 0 0 0 0 0 0 0 0 0 0 0 0 0 0 0 0 0 0 0 0 0 0 0 0 0 0 0 0 0 0 0 0 0 0 0 0 0 0 0 0 0 0
0 0 0 0 0 0 0 0 0 0 0 0 0 0 0 0 0 0 0 0 0 0 0 0 0 0 0 0 0 0 0 0 0 0 0 0 0 0 0 0 0 0 0 0
0 0 0 0 0 0 0 0 0 0 0 0 0 0 0 0 0 0 0 0 0 1 0 0 0 0 0 0 0 0 0 0 0 0 0 0 0 0 0 0 0 0 0 0
0 0 0 0 0 0 0 0 0 0 0 0 0 0 0 0 0 0 0 0 0 1 0 0 0 0 0 0 0 0 0 0 0 0 0 0 0 0 0 0 0 0 0 0
0 0 0 0 0 0 0 0 0 0 0 0 0 0 0 0 0 0 0 0 0 0 0 0 0 0 0 0 0 0 0 0 1 1 1 0 0 0 0 0 0 0 0 0
0 0 0 0 0 0 0 0 0 0 0 0 0 0 0 0 0 0 0 0 0 0 0 0 1 1 0 0 0 0 0 0 1 1 1 1 1 0 0 0 0 0 0 0
0 0 0 0 0 0 0 0 0 0 0 0 0 0 0 0 0 0 0 0 0 0 1 1 1 1 1 1 1 1 0 0 1 1 1 1 1 1 1 0 0 0 0 0
0 0 0 0 0 0 0 0 0 0 0 0 0 0 0 0 0 0 0 0 0 1 1 1 1 1 1 1 1 1 1 1 1 1 1 1 1 1 1 1 0 0 0 0
0 0 0 0 0 0 0 0 0 0 0 0 0 0 0 0 0 0 0 0 0 1 1 1 1 1 1 1 1 1 1 1 1 1 1 1 1 1 1 1 0 0 0 0
0 0 0 0 0 0 0 0 0 0 0 0 0 0 0 0 0 0 0 0 0 1 1 1 1 1 1 1 1 1 1 1 1 1 1 1 1 1 1 1 0 0 0 0
0 0 0 0 0 0 0 0 0 0 0 0 0 0 0 0 0 0 0 0 0 1 1 1 1 1 1 1 1 1 1 1 1 1 1 1 1 1 1 1 1 1 1 1
0 0 0 0 0 0 0 0 0 0 0 0 0 0 0 0 0 0 0 0 0 1 1 1 1 1 1 1 1 1 1 1 1 1 1 1 1 1 1 1 1 1 1 1
0 0 0 0 0 0 0 0 0 0 0 0 0 0 0 0 0 0 0 0 1 1 1 1 1 1 1 1 1 1 1 1 1 1 1 1 1 1 1 1 1 1 1 1
0 0 0 0 0 0 0 0 0 0 0 0 0 0 0 0 0 0 1 1 1 1 1 1 1 1 1 1 1 1 1 1 1 1 1 1 1 1 1 1 1 1 1 1
0 0 0 0 0 0 0 0 0 0 0 0 0 0 0 1 1 1 1 1 1 1 1 1 1 1 1 1 1 1 1 1 1 1 1 1 1 1 1 1 1 1 1 1
0 0 0 0 0 0 0 0 0 0 0 0 0 0 1 1 1 1 1 1 1 1 1 1 1 1 1 1 1 1 1 1 1 1 1 1 1 1 1 1 1 1 1 1
0 0 0 0 0 0 0 0 0 0 0 0 0 1 1 1 1 1 1 1 1 1 1 1 1 1 1 1 1 1 1 1 1 1 1 1 1 1 1 1 1 1 1 1
0 0 0 0 0 0 0 0 0 0 0 0 0 1 1 1 1 1 1 1 1 1 1 1 1 1 1 1 1 1 1 1 1 1 1 1 1 1 1 1 1 1 1 1
0 0 0 0 0 0 0 0 0 0 0 0 0 1 1 1 1 1 1 1 1 1 1 1 1 1 1 1 1 1 1 1 1 1 1 1 1 1 1 1 1 0 0 0
0 0 0 0 0 0 0 0 0 0 0 0 0 1 1 1 1 1 1 1 1 1 1 1 1 1 1 1 1 1 1 1 1 1 1 1 1 1 1 1 0 0 0 0
Wind_Speed
10 11 11 9 8 5 4 4 3 1 3 6 6 5 8 11 12 11 11 11 11 10 9 9 9 8 8 8 7 6 5 5 3 2 2 2 2 2 2 2 2 2 1 2
10 13 10 7 7 7 7 7 4 3 3 6 5 6 6 11 13 12 12 12 12 11 11 10 10 10 9 9 8 7 6 5 5 3 2 2 1 1 1 1 2 1 1 1
14 9 8 8 9 10 9 8 5 3 4 7 6 7 8 10 12 12 12 12 12 12 12 12 12 11 10 9 9 7 6 5 5 4 3 3 2 2 2 2 2 1 1 1
13 8 9 11 12 12 10 7 6 5 7 5 6 5 6 9 11 13 13 13 13 13 13 12 13 12 11 10 9 8 7 6 5 5 4 4 3 2 2 2 2 2 2 2
11 10 11 13 12 11 6 3 6 7 8 7 6 8 3 8 9 11 13 14 14 14 14 14 13 12 11 10 9 9 8 7 6 6 5 5 3 2 2 2 3 2 2 2
10 8 11 11 8 8 5 5 6 8 9 9 6 8 3 4 6 7 11 12 13 14 14 13 13 12 11 10 10 9 9 8 7 7 6 5 4 3 2 3 3 3 3 3
12 11 10 8 9 10 11 10 8 9 9 6 4 7 3 1 2 4 7 10 12 13 14 14 14 13 12 11 11 9 10 9 8 8 7 6 5 5 4 3 3 3 2 2
13 13 12 11 12 10 14 15 11 9 8 5 6 7 2 1 1 3 5 7 10 12 13 14 14 13 12 12 11 11 10 9 9 8 7 6 6 5 4 3 3 2 2 1
10 11 10 9 9 11 13 14 12 12 11 10 6 5 4 3 3 4 5 7 9 10 12 12 13 12 12 12 11 11 10 9 9 8 8 7 6 4 3 4 4 3 2 2
7 8 9 8 8 7 10 10 9 11 10 11 9 8 6 5 4 5 6 7 8 9 10 11 11 12 11 11 10 10 10 9 8 8 7 6 6 6 5 4 3 3 2 2
9 9 9 10 12 11 9 11 11 10 11 11 9 5 1 4 4 5 6 6 7 9 10 10 10 10 11 10 10 10 9 9 8 7 6 6 6 6 5 4 4 4 3 4
9 9 9 10 6 7 11 11 12 11 10 11 11 3 3 3 3 3 5 6 6 7 8 9 10 10 10 10 10 10 9 8 8 7 7 7 6 5 5 5 5 4 4 4
7 8 10 10 10 9 10 10 12 12 10 10 12 5 5 4 3 3 4 5 6 7 7 8 8 9 9 9 9 9 9 8 8 8 7 7 6 6 5 5 5 5 4 4
7 10 12 12 8 9 10 11 12 13 12 11 12 7 6 5 4 4 4 5 6 7 7 8 8 8 8 8 8 8 8 7 7 7 7 6 5 5 5 4 4 4 4 4
7 10 10 9 7 8 10 11 12 14 13 12 9 8 6 6 5 4 4 5 6 7 7 8 8 8 8 8 8 7 7 7 7 7 7 6 5 5 4 4 4 4 4 4
6 7 8 9 8 8 10 11 11 12 11 11 10 8 3 4 4 4 5 6 7 7 7 7 7 7 7 8 8 8 7 7 7 7 7 6 6 5 5 5 4 4 4 3
7 7 9 10 9 9 12 10 11 10 9 10 10 7 5 5 4 4 5 6 6 6 7 7 7 7 7 7 8 8 8 8 7 7 6 6 6 5 5 5 5 5 4 4
8 8 7 8 9 15 5 2 6 8 8 8 6 4 4 3 3 3 4 4 5 5 6 6 6 7 7 8 8 8 8 8 8 7 6 6 6 6 6 5 5 5 4 4
8 8 8 9 12 10 7 4 5 7 7 4 4 2 2 2 3 4 2 3 3 4 4 4 5 6 6 7 8 8 8 8 7 7 6 6 6 6 6 5 5 5 4 4
6 8 9 10 12 11 5 3 2 6 8 3 2 3 4 5 6 3 2 2 3 3 4 4 5 6 7 7 8 8 7 6 6 5 5 5 5 5 5 4 4 4 4 4
8 8 11 12 11 6 1 3 5 8 2 2 1 2 4 4 3 1 1 2 3 4 5 5 6 5 6 7 7 7 6 6 5 5 4 4 4 5 4 4 4 4 4 4
7 8 9 10 12 7 3 3 4 2 3 1 1 2 2 0 0 1 2 3 4 5 6 6 5 5 5 6 6 6 5 4 4 4 4 4 3 3 3 3 4 4 4 5
6 5 4 4 2 3 1 1 2 2 2 1 2 1 1 2 2 3 3 4 4 4 5 5 5 5 5 5 5 5 4 4 4 4 4 4 4 3 3 4 4 4 5 5
4 3 4 3 2 1 0 0 1 1 1 1 1 1 2 2 2 3 4 4 4 4 4 4 5 5 5 4 4 4 4 4 4 4 3 3 4 4 4 3 4 4 4 4
3 3 4 4 3 2 1 1 1 1 1 1 1 2 1 2 3 4 4 4 3 3 3 3 3 4 4 3 3 3 4 4 4 4 3 4 4 4 3 4 3 4 3 2
5 5 6 4 2 2 1 1 1 1 1 2 2 2 1 2 3 4 4 4 3 3 3 3 3 3 3 3 3 3 3 4 4 4 4 3 3 3 3 4 4 2 3 2
Wind_Direction
194 212 212 212 230 263 254 259 238 161 167 215 225 215 181 184 194 193 194 193 195 196 184 182 183 183 180 179 180 184 190 178 184 177 182 166 154 154 129 127 122 140 123 121
199 219 221 223 222 231 238 244 231 173 176 238 238 237 202 191 202 201 200 199 199 194 186 184 187 186 185 182 184 185 190 188 193 176 175 174 159 158 140 112 112 136 133 143
220 214 203 215 214 226 234 245 250 237 189 220 251 224 198 192 205 208 210 207 203 199 192 187 190 192 188 184 187 186 186 189 197 187 182 170 172 186 156 154 154 155 157 158
228 214 211 221 223 231 233 233 244 231 232 218 241 260 176 189 200 207 210 208 205 201 197 191 191 192 190 187 185 186 186 188 190 193 196 189 187 183 174 180 149 155 157 159
214 208 213 223 224 229 243 225 231 232 243 255 223 262 175 180 206 206 206 207 206 199 195 193 192 190 190 189 185 184 184 186 188 195 193 202 199 196 172 173 149 180 156 169
228 215 227 231 224 217 186 187 203 227 239 244 238 257 236 187 221 210 199 203 203 198 193 192 189 186 189 188 188 185 183 187 190 196 197 203 199 204 190 186 172 187 170 175
210 211 210 215 203 194 205 216 217 220 223 236 195 247 269 35 234 227 202 197 199 196 193 190 189 187 189 190 189 186 184 187 191 194 196 196 196 198 201 211 193 215 184 173
206 205 197 204 219 209 216 231 241 249 248 228 194 240 225 87 172 208 204 190 190 190 189 188 187 188 189 191 190 189 187 188 188 189 191 194 199 205 197 207 224 203 211 181
213 207 184 203 224 231 216 230 250 257 260 262 228 223 213 194 190 180 177 174 181 185 184 183 183 185 185 188 188 189 186 187 188 188 186 189 196 205 198 192 209 203 199 187
231 220 188 184 204 226 247 231 234 247 250 253 239 232 230 207 199 173 171 173 175 177 178 178 181 182 182 183 182 184 183 184 186 187 191 184 188 192 195 200 190 190 189 185
231 224 193 196 215 208 203 220 233 244 254 257 253 234 181 183 193 179 165 163 167 172 173 174 177 178 177 178 177 179 180 181 182 181 183 187 187 185 184 188 190 190 190 182
222 234 218 210 213 250 227 225 224 236 238 251 264 240 114 155 171 170 153 153 161 165 167 169 169 171 175 178 177 177 180 181 179 176 179 185 185 186 190 186 189 191 189 191
204 229 219 206 198 202 223 225 233 245 243 247 252 225 154 162 160 157 154 150 155 161 163 164 164 168 172 172 174 175 180 179 175 175 179 180 186 185 190 192 189 189 190 192
228 232 237 238 228 202 213 218 226 237 242 242 249 243 197 197 190 172 165 161 160 162 165 167 164 165 165 165 166 168 172 173 173 175 178 177 182 182 182 183 184 187 191 192
229 230 236 252 251 233 227 222 221 234 251 255 247 245 224 216 216 191 178 171 171 169 169 171 169 166 166 164 162 161 162 165 169 174 177 175 177 177 179 181 184 186 191 195
229 234 222 229 230 230 233 229 225 235 244 245 248 249 233 201 203 200 189 185 187 183 178 172 169 165 166 166 166 163 164 163 166 174 174 172 176 179 184 186 185 185 188 194
212 218 226 228 220 228 229 226 224 228 239 244 241 237 202 203 202 210 200 192 196 193 182 176 173 170 169 170 169 168 167 162 162 167 172 171 177 184 190 192 186 188 192 194
220 224 230 227 217 233 232 221 234 234 237 246 256 232 211 211 215 227 219 202 198 195 184 178 174 170 170 169 167 165 163 163 163 166 170 175 185 189 191 193 192 192 197 201
219 220 230 229 226 231 222 207 222 233 235 237 241 218 192 192 214 201 189 188 195 191 182 180 176 168 164 162 159 159 162 164 167 170 175 179 187 189 192 194 194 192 195 200
194 217 231 232 239 236 219 162 221 241 228 195 198 196 193 208 227 177 119 168 160 161 161 163 161 154 152 154 156 157 157 161 166 168 176 181 189 190 192 192 194 195 199 208
196 209 228 232 238 236 93 132 194 228 221 96 194 203 210 233 305 87 136 157 159 153 151 151 149 147 146 151 155 156 159 168 167 161 160 172 183 189 190 191 197 202 208 210
229 223 224 235 237 224 113 178 225 355 10 302 237 204 206 119 62 168 169 159 153 147 146 146 142 139 141 152 159 162 164 163 159 157 161 165 174 193 181 192 204 211 215 212
235 267 267 263 273 36 16 327 3 301 301 294 253 222 183 184 190 180 159 147 144 144 143 146 144 143 147 161 168 166 154 161 162 165 170 170 179 198 196 200 207 212 217 231
203 261 249 237 207 210 212 50 326 309 320 316 253 172 175 187 178 153 146 141 139 144 149 152 151 150 153 157 160 157 155 163 169 176 180 182 192 199 197 218 221 227 227 234
243 228 233 229 222 203 168 11 34 50 48 78 90 106 115 148 140 137 138 137 143 145 148 152 152 151 154 152 152 159 162 168 177 184 191 204 209 205 204 214 234 243 245 265
230 233 241 244 222 255 258 318 16 78 83 95 84 67 65 108 120 126 124 125 128 131 136 141 151 156 156 160 163 167 170 177 188 196 204 216 218 214 224 220 220 216 243 209